EDT,Max TemperatureF,Mean TemperatureF,Min TemperatureF,Max Dew PointF,MeanDew PointF,Min DewpointF,Max Humidity, Mean Humidity, Min Humidity, Max Sea Level PressureIn, Mean Sea Level PressureIn, Min Sea Level PressureIn, Max VisibilityMiles, Mean VisibilityMiles, Min VisibilityMiles, Max Wind SpeedMPH, Mean Wind SpeedMPH, Max Gust SpeedMPH,PrecipitationIn, CloudCover, Events, WindDirDegrees
2013-3-1,28,26,23,23,19,17,78,75,71,30.09,30.04,29.95,10,8,3,12,7,18,0.00,8,Snow,6
2013-3-2,25,22,20,18,17,14,79,74,68,30.07,30.05,30.03,10,9,5,12,7,16,0.00,8,Snow,324
2013-3-3,28,22,16,15,13,11,81,67,52,30.03,30.01,29.98,10,10,7,13,7,18,0.00,4,Snow,309
2013-3-4,32,22,13,15,12,8,83,64,40,30.12,30.08,30.03,10,10,10,7,4,,0.00,0,,313
2013-3-5,36,28,19,22,18,12,85,67,50,30.10,29.94,29.81,10,10,10,15,7,25,0.00,3,,66
2013-3-6,35,30,26,28,25,22,82,77,69,30.19,30.05,29.85,10,10,7,13,6,20,0.00,8,,357
2013-3-7,34,30,26,29,23,16,87,72,52,30.37,30.28,30.18,10,9,3,13,3,16,0.00,7,Snow,330
2013-3-8,43,32,20,25,20,16,82,65,43,30.48,30.42,30.37,10,10,7,8,2,,0.00,0,,313
2013-3-9,42,34,26,30,26,22,87,70,52,30.38,30.23,30.01,10,10,7,15,6,18,0.00,3,Rain,141
2013-3-10,58,48,37,40,34,30,74,56,40,30.00,29.89,29.78,10,10,10,17,9,25,0.00,5,Rain,166
2013-3-11,55,46,36,47,41,32,90,76,48,29.79,29.62,29.46,10,8,2,18,14,26,0.00,8,Rain,194
2013-3-12,36,33,30,32,27,22,87,78,65,29.88,29.80,29.66,10,9,2,18,11,28,0.00,8,Snow,242
2013-3-13,32,28,23,28,18,12,90,67,48,30.17,29.99,29.83,10,8,0,22,11,30,0.00,6,Snow,283
2013-3-14,39,30,20,19,15,10,77,56,37,30.23,30.16,30.06,10,10,10,14,8,21,0.00,0,,277
2013-3-15,37,34,31,33,27,13,96,77,45,30.05,29.90,29.82,10,5,0,14,8,20,0.00,8,Rain-Snow,260
2013-3-16,33,30,26,32,25,21,96,84,69,30.00,29.85,29.75,10,7,0,13,5,,0.00,8,Snow,32
2013-3-17,31,25,19,22,13,7,80,59,41,30.25,30.16,30.01,10,10,10,14,8,20,0.00,1,,35
2013-3-18,34,28,21,32,24,11,94,81,66,30.15,29.78,29.53,10,7,1,20,10,25,0.00,5,Rain-Snow,110
2013-3-19,34,28,23,30,18,14,87,71,62,29.90,29.75,29.58,10,7,0,29,17,38,0.00,7,Snow,253
2013-3-20,28,22,16,16,12,8,76,62,51,29.92,29.89,29.87,10,9,2,18,11,28,0.00,6,Snow,272
2013-3-21,30,22,15,22,17,10,83,74,63,29.91,29.86,29.83,10,7,0,17,10,23,0.00,7,Snow,278
2013-3-22,37,32,26,22,18,15,73,61,47,30.00,29.95,29.91,10,10,10,15,10,23,0.00,6,Snow,290
2013-3-23,33,27,21,24,21,18,89,71,60,30.09,30.04,30.00,10,10,7,8,4,,0.00,5,,311
2013-3-24,37,30,22,26,22,18,89,73,47,30.02,29.85,29.64,10,10,10,18,5,28,0.00,4,,46
2013-3-25,37,34,30,28,24,21,79,66,55,29.91,29.69,29.57,10,10,10,16,10,28,0.00,8,Snow,16
2013-3-26,42,37,32,31,27,23,87,72,51,30.10,30.01,29.91,10,10,7,15,8,18,0.00,8,Snow,301
2013-3-27,46,38,29,29,23,20,83,60,37,30.19,30.14,30.10,10,10,10,20,10,25,0.00,4,,289
2013-3-28,50,40,29,27,24,20,79,56,38,30.25,30.22,30.19,10,10,10,14,9,18,0.00,2,,297
2013-3-29,51,39,27,24,22,20,80,52,31,30.27,30.23,30.19,10,10,10,8,4,,0.00,1,,282
2013-3-30,55,40,26,30,24,18,88,53,24,30.20,30.09,29.90,10,10,10,13,4,20,0.00,0,,213
2013-3-31,56,46,37,43,35,30,91,65,42,29.90,29.71,29.61,10,9,3,20,8,26,0.00,5,Rain,233